• In Österreich
  • Länderverzeichnis
  • Für 7 Tage
  • Wassertemperatur
  • Satellitenkarten
  • Wetterkarte
  • News
  • Widgets
  • user-avatar
    Anmelden

    Stündliche Wetter Chipinge

    Heute, 18 Juni, Montag

    Zeit Temperatur Niederschläge Wind Luftdruck Luftfeuchtigkeit
    00:00 +13°C° 0 mm 1 m/S 675 mmHg 96%
    01:00 +13°C° 0 mm 1 m/S 675 mmHg 96%
    02:00 +12°C° 0 mm 0 m/S 674 mmHg 96%
    03:00 +13°C° 0 mm 1 m/S 674 mmHg 97%
    04:00 +13°C° 0 mm 1 m/S 674 mmHg 97%
    05:00 +12°C° 0 mm 1 m/S 674 mmHg 97%
    06:00 +14°C° 0 mm 1 m/S 674 mmHg 92%
    07:00 +15°C° 0 mm 1 m/S 675 mmHg 86%
    08:00 +16°C° 0 mm 1 m/S 675 mmHg 81%
    09:00 +20°C° 0 mm 1 m/S 676 mmHg 69%
    10:00 +22°C° 0 mm 1 m/S 676 mmHg 57%
    11:00 +25°C° 0 mm 1 m/S 677 mmHg 45%
    12:00 +26°C° 0 mm 1 m/S 676 mmHg 42%
    13:00 +27°C° 0 mm 1 m/S 676 mmHg 38%
    14:00 +27°C° 0 mm 1 m/S 675 mmHg 35%
    15:00 +26°C° 0 mm 1 m/S 675 mmHg 39%
    16:00 +24°C° 0 mm 1 m/S 674 mmHg 43%
    17:00 +22°C° 0 mm 1 m/S 673 mmHg 48%
    18:00 +21°C° 0 mm 1 m/S 673 mmHg 54%
    19:00 +19°C° 0 mm 1 m/S 673 mmHg 60%
    20:00 +16°C° 0 mm 1 m/S 673 mmHg 66%
    21:00 +16°C° 0 mm 1 m/S 673 mmHg 70%
    22:00 +16°C° 0 mm 1 m/S 673 mmHg 73%
    23:00 +15°C° 0 mm 1 m/S 673 mmHg 76%

    Morgen, 19 Juni, Dienstag

    Zeit Temperatur Niederschläge Wind Luftdruck Luftfeuchtigkeit
    00:00 +15°C° 0 mm 1 m/S 673 mmHg 78%
    01:00 +14°C° 0 mm 1 m/S 673 mmHg 79%
    02:00 +14°C° 0 mm 1 m/S 672 mmHg 81%
    03:00 +14°C° 0 mm 1 m/S 672 mmHg 81%
    04:00 +13°C° 0 mm 1 m/S 672 mmHg 81%
    05:00 +13°C° 0 mm 1 m/S 672 mmHg 81%
    06:00 +15°C° 0 mm 1 m/S 673 mmHg 74%
    07:00 +16°C° 0 mm 1 m/S 674 mmHg 67%
    08:00 +19°C° 0 mm 1 m/S 674 mmHg 60%
    09:00 +22°C° 0 mm 1 m/S 675 mmHg 49%
    10:00 +25°C° 0 mm 1 m/S 676 mmHg 39%
    11:00 +28°C° 0 mm 1 m/S 676 mmHg 29%
    12:00 +28°C° 0 mm 1 m/S 675 mmHg 27%
    13:00 +29°C° 0 mm 1 m/S 675 mmHg 25%
    14:00 +29°C° 0 mm 1 m/S 674 mmHg 23%
    15:00 +27°C° 0 mm 1 m/S 674 mmHg 27%
    16:00 +25°C° 0 mm 1 m/S 673 mmHg 30%
    17:00 +23°C° 0 mm 1 m/S 673 mmHg 34%
    18:00 +21°C° 0 mm 1 m/S 673 mmHg 39%
    19:00 +20°C° 0 mm 1 m/S 673 mmHg 43%
    20:00 +18°C° 0 mm 1 m/S 673 mmHg 47%
    21:00 +18°C° 0 mm 1 m/S 673 mmHg 50%
    22:00 +16°C° 0 mm 1 m/S 673 mmHg 54%
    23:00 +16°C° 0 mm 1 m/S 673 mmHg 57%

    übermorgen, 20 Juni, Mittwoch

    Zeit Temperatur Niederschläge Wind Luftdruck Luftfeuchtigkeit
    00:00 +15°C° 0 mm 1 m/S 673 mmHg 60%
    01:00 +15°C° 0 mm 1 m/S 673 mmHg 63%
    02:00 +15°C° 0 mm 1 m/S 673 mmHg 65%
    03:00 +14°C° 0 mm 1 m/S 673 mmHg 66%
    04:00 +14°C° 0 mm 1 m/S 673 mmHg 68%
    05:00 +14°C° 0 mm 1 m/S 673 mmHg 69%
    06:00 +16°C° 0 mm 1 m/S 674 mmHg 63%
    07:00 +18°C° 0 mm 1 m/S 675 mmHg 58%
    08:00 +18°C° 0 mm 0 m/S 675 mmHg 53%
    09:00 +22°C° 0 mm 1 m/S 676 mmHg 45%
    10:00 +25°C° 0 mm 1 m/S 677 mmHg 37%
    11:00 +28°C° 0 mm 1 m/S 678 mmHg 29%
    12:00 +28°C° 0 mm 1 m/S 677 mmHg 28%
    13:00 +28°C° 0 mm 2 m/S 677 mmHg 27%
    14:00 +28°C° 0 mm 2 m/S 676 mmHg 25%
    15:00 +27°C° 0 mm 2 m/S 676 mmHg 30%
    16:00 +25°C° 0 mm 2 m/S 676 mmHg 34%
    17:00 +23°C° 0 mm 2 m/S 675 mmHg 38%
    18:00 +21°C° 0 mm 2 m/S 675 mmHg 44%
    19:00 +19°C° 0 mm 2 m/S 676 mmHg 49%
    20:00 +17°C° 0 mm 2 m/S 676 mmHg 55%
    21:00 +16°C° 0 mm 1 m/S 676 mmHg 60%
    22:00 +16°C° 0 mm 1 m/S 676 mmHg 65%
    23:00 +15°C° 0 mm 1 m/S 676 mmHg 70%

    21 Juni, Donnerstag

    Zeit Temperatur Niederschläge Wind Luftdruck Luftfeuchtigkeit
    00:00 +15°C° 0 mm 1 m/S 676 mmHg 74%
    01:00 +14°C° 0 mm 1 m/S 676 mmHg 78%
    02:00 +14°C° 0 mm 1 m/S 675 mmHg 82%
    03:00 +14°C° 0 mm 1 m/S 675 mmHg 84%
    04:00 +13°C° 0 mm 1 m/S 676 mmHg 86%
    05:00 +13°C° 0 mm 1 m/S 676 mmHg 87%
    06:00 +14°C° 0 mm 1 m/S 676 mmHg 81%
    07:00 +14°C° 0 mm 0 m/S 677 mmHg 74%
    08:00 +16°C° 0 mm 0 m/S 678 mmHg 67%
    09:00 +20°C° 0 mm 1 m/S 679 mmHg 58%
    10:00 +22°C° 0 mm 1 m/S 679 mmHg 49%
    11:00 +25°C° 0 mm 2 m/S 679 mmHg 39%
    12:00 +25°C° 0 mm 2 m/S 679 mmHg 37%
    13:00 +26°C° 0 mm 2 m/S 678 mmHg 35%
    14:00 +26°C° 0 mm 2 m/S 677 mmHg 33%
    15:00 +25°C° 0 mm 2 m/S 677 mmHg 37%
    16:00 +23°C° 0 mm 2 m/S 676 mmHg 41%
    17:00 +22°C° 0 mm 1 m/S 676 mmHg 45%
    18:00 +20°C° 0 mm 1 m/S 676 mmHg 51%
    19:00 +18°C° 0 mm 1 m/S 676 mmHg 57%
    20:00 +16°C° 0 mm 1 m/S 676 mmHg 63%
    21:00 +15°C° 0 mm 1 m/S 676 mmHg 67%
    22:00 +15°C° 0 mm 1 m/S 676 mmHg 71%
    23:00 +14°C° 0 mm 1 m/S 676 mmHg 75%

    22 Juni, Freitag

    Zeit Temperatur Niederschläge Wind Luftdruck Luftfeuchtigkeit
    00:00 +14°C° 0 mm 1 m/S 676 mmHg 79%
    01:00 +13°C° 0 mm 1 m/S 675 mmHg 83%
    02:00 +13°C° 0 mm 1 m/S 675 mmHg 86%
    03:00 +13°C° 0 mm 1 m/S 675 mmHg 88%
    04:00 +13°C° 0 mm 1 m/S 675 mmHg 89%
    05:00 +12°C° 0 mm 1 m/S 675 mmHg 90%
    06:00 +14°C° 0 mm 1 m/S 676 mmHg 83%
    07:00 +14°C° 0 mm 0 m/S 677 mmHg 76%
    08:00 +16°C° 0 mm 0 m/S 678 mmHg 69%
    09:00 +20°C° 0 mm 1 m/S 678 mmHg 60%
    10:00 +22°C° 0 mm 1 m/S 678 mmHg 51%
    11:00 +25°C° 0 mm 1 m/S 679 mmHg 42%
    12:00 +25°C° 0 mm 2 m/S 678 mmHg 40%
    13:00 +25°C° 0 mm 2 m/S 677 mmHg 38%
    14:00 +26°C° 0 mm 2 m/S 677 mmHg 36%
    15:00 +24°C° 0 mm 2 m/S 676 mmHg 40%
    16:00 +23°C° 0 mm 2 m/S 676 mmHg 44%
    17:00 +21°C° 0 mm 2 m/S 676 mmHg 47%
    18:00 +19°C° 0 mm 2 m/S 676 mmHg 53%
    19:00 +17°C° 0 mm 2 m/S 676 mmHg 59%
    20:00 +16°C° 0 mm 1 m/S 676 mmHg 65%
    21:00 +15°C° 0 mm 1 m/S 676 mmHg 68%
    22:00 +14°C° 0 mm 1 m/S 676 mmHg 71%
    23:00 +14°C° 0 mm 1 m/S 676 mmHg 75%

    23 Juni, Samstag

    Zeit Temperatur Niederschläge Wind Luftdruck Luftfeuchtigkeit
    00:00 +13°C° 0 mm 1 m/S 676 mmHg 77%
    01:00 +13°C° 0 mm 1 m/S 675 mmHg 80%
    02:00 +12°C° 0 mm 1 m/S 675 mmHg 82%
    03:00 +12°C° 0 mm 1 m/S 675 mmHg 85%
    04:00 +12°C° 0 mm 1 m/S 675 mmHg 87%
    05:00 +11°C° 0 mm 1 m/S 675 mmHg 89%
    06:00 +13°C° 0 mm 1 m/S 676 mmHg 83%
    07:00 +14°C° 0 mm 1 m/S 677 mmHg 77%
    08:00 +16°C° 0 mm 1 m/S 678 mmHg 72%
    09:00 +19°C° 0 mm 1 m/S 678 mmHg 61%
    10:00 +21°C° 0 mm 1 m/S 678 mmHg 51%
    11:00 +23°C° 0 mm 2 m/S 678 mmHg 40%
    12:00 +24°C° 0 mm 2 m/S 678 mmHg 37%
    13:00 +24°C° 0 mm 2 m/S 677 mmHg 35%
    14:00 +25°C° 0 mm 2 m/S 676 mmHg 32%
    15:00 +24°C° 0 mm 2 m/S 676 mmHg 37%
    16:00 +21°C° 0 mm 2 m/S 675 mmHg 42%
    17:00 +20°C° 0 mm 2 m/S 675 mmHg 48%
    18:00 +18°C° 0 mm 2 m/S 675 mmHg 56%
    19:00 +16°C° 0 mm 1 m/S 675 mmHg 65%
    20:00 +15°C° 0 mm 1 m/S 675 mmHg 74%
    21:00 +14°C° 0 mm 1 m/S 675 mmHg 78%
    22:00 +14°C° 0 mm 1 m/S 675 mmHg 82%
    23:00 +13°C° 0 mm 1 m/S 675 mmHg 87%
    Mehr zeigen